When you browse on this site, cookies collect data to enhance your experience and personalize the content and advertising you see.
Visit our Privacy Policy to learn more. By continuing to use the site, you agree to this use of cookies and data.

Tiempo cada hora Diego de Almagro

Hoy, 11 Julio, Sábado

Tiempo Temperatura Precipitaciones Viento Presión Humedad
00:00 +8°C° 0 mm 0 mps 678 mmHg 63%
01:00 +8°C° 0 mm 0 mps 678 mmHg 62%
02:00 +8°C° 0 mm 0 mps 678 mmHg 61%
03:00 +8°C° 0 mm 0 mps 678 mmHg 59%
04:00 +8°C° 0 mm 0 mps 678 mmHg 57%
05:00 +8°C° 0 mm 0 mps 678 mmHg 52%
06:00 +9°C° 0 mm 0 mps 678 mmHg 46%
07:00 +9°C° 0 mm 0 mps 678 mmHg 40%
08:00 +15°C° 0 mm 1 mps 679 mmHg 32%
09:00 +20°C° 0 mm 1 mps 680 mmHg 24%
10:00 +24°C° 0 mm 2 mps 681 mmHg 16%
11:00 +25°C° 0 mm 2 mps 681 mmHg 15%
12:00 +26°C° 0 mm 3 mps 681 mmHg 14%
13:00 +27°C° 0 mm 3 mps 681 mmHg 14%
14:00 +26°C° 0 mm 3 mps 681 mmHg 18%
15:00 +25°C° 0 mm 3 mps 681 mmHg 23%
16:00 +24°C° 0 mm 3 mps 681 mmHg 27%
17:00 +19°C° 0 mm 2 mps 680 mmHg 41%
18:00 +15°C° 0 mm 1 mps 679 mmHg 55%
19:00 +10°C° 0 mm 0 mps 678 mmHg 69%
20:00 +11°C° 0 mm 1 mps 678 mmHg 67%
21:00 +11°C° 0 mm 1 mps 679 mmHg 64%
22:00 +11°C° 0 mm 1 mps 679 mmHg 61%
23:00 +11°C° 0 mm 1 mps 679 mmHg 58%

Mañana, 12 Julio, Domingo

Tiempo Temperatura Precipitaciones Viento Presión Humedad
00:00 +11°C° 0 mm 1 mps 678 mmHg 54%
01:00 +11°C° 0 mm 1 mps 678 mmHg 51%
02:00 +11°C° 0 mm 1 mps 678 mmHg 50%
03:00 +11°C° 0 mm 1 mps 678 mmHg 49%
04:00 +10°C° 0 mm 1 mps 677 mmHg 47%
05:00 +11°C° 0 mm 1 mps 677 mmHg 39%
06:00 +12°C° 0 mm 1 mps 678 mmHg 30%
07:00 +12°C° 0 mm 1 mps 678 mmHg 21%
08:00 +18°C° 0 mm 1 mps 679 mmHg 16%
09:00 +23°C° 0 mm 1 mps 680 mmHg 10%
10:00 +27°C° 0 mm 1 mps 681 mmHg 5%
11:00 +28°C° 0 mm 2 mps 681 mmHg 6%
12:00 +29°C° 0 mm 3 mps 680 mmHg 7%
13:00 +30°C° 0 mm 4 mps 680 mmHg 8%
14:00 +28°C° 0 mm 4 mps 680 mmHg 13%
15:00 +27°C° 0 mm 3 mps 679 mmHg 17%
16:00 +25°C° 0 mm 3 mps 679 mmHg 22%
17:00 +20°C° 0 mm 2 mps 678 mmHg 37%
18:00 +15°C° 0 mm 1 mps 678 mmHg 53%
19:00 +10°C° 0 mm 0 mps 677 mmHg 68%
20:00 +10°C° 0 mm 0 mps 677 mmHg 67%
21:00 +10°C° 0 mm 0 mps 677 mmHg 66%
22:00 +9°C° 0 mm 0 mps 677 mmHg 65%
23:00 +9°C° 0 mm 0 mps 677 mmHg 65%

Pasado mañana, 13 Julio, Lunes

Tiempo Temperatura Precipitaciones Viento Presión Humedad
00:00 +9°C° 0 mm 0 mps 677 mmHg 65%
01:00 +8°C° 0 mm 0 mps 677 mmHg 65%
02:00 +8°C° 0 mm 0 mps 677 mmHg 66%
03:00 +7°C° 0 mm 0 mps 677 mmHg 66%
04:00 +7°C° 0 mm 0 mps 676 mmHg 67%
05:00 +7°C° 0 mm 0 mps 677 mmHg 65%
06:00 +8°C° 0 mm 0 mps 677 mmHg 62%
07:00 +9°C° 0 mm 0 mps 678 mmHg 59%
08:00 +14°C° 0 mm 1 mps 679 mmHg 47%
09:00 +19°C° 0 mm 1 mps 680 mmHg 34%
10:00 +23°C° 0 mm 2 mps 682 mmHg 21%
11:00 +24°C° 0 mm 2 mps 681 mmHg 21%
12:00 +25°C° 0 mm 3 mps 681 mmHg 21%
13:00 +25°C° 0 mm 3 mps 681 mmHg 21%
14:00 +24°C° 0 mm 3 mps 681 mmHg 25%
15:00 +22°C° 0 mm 3 mps 680 mmHg 29%
16:00 +21°C° 0 mm 2 mps 680 mmHg 33%
17:00 +18°C° 0 mm 2 mps 679 mmHg 46%
18:00 +14°C° 0 mm 1 mps 679 mmHg 59%
19:00 +10°C° 0 mm 0 mps 678 mmHg 73%
20:00 +9°C° 0 mm 0 mps 678 mmHg 70%
21:00 +9°C° 0 mm 0 mps 678 mmHg 68%
22:00 +9°C° 0 mm 0 mps 678 mmHg 66%
23:00 +9°C° 0 mm 0 mps 678 mmHg 66%

14 Julio, Martes

Tiempo Temperatura Precipitaciones Viento Presión Humedad
00:00 +9°C° 0 mm 0 mps 677 mmHg 66%
01:00 +8°C° 0 mm 0 mps 677 mmHg 66%
02:00 +8°C° 0 mm 0 mps 677 mmHg 65%
03:00 +8°C° 0 mm 0 mps 676 mmHg 63%
04:00 +8°C° 0 mm 0 mps 676 mmHg 62%
05:00 +8°C° 0 mm 0 mps 676 mmHg 61%
06:00 +8°C° 0 mm 0 mps 677 mmHg 59%
07:00 +9°C° 0 mm 0 mps 677 mmHg 57%
08:00 +13°C° 0 mm 0 mps 678 mmHg 44%
09:00 +20°C° 0 mm 1 mps 679 mmHg 32%
10:00 +24°C° 0 mm 1 mps 680 mmHg 19%
11:00 +25°C° 0 mm 2 mps 680 mmHg 19%
12:00 +26°C° 0 mm 3 mps 680 mmHg 18%
13:00 +26°C° 0 mm 4 mps 680 mmHg 18%
14:00 +25°C° 0 mm 4 mps 680 mmHg 20%
15:00 +24°C° 0 mm 3 mps 679 mmHg 22%
16:00 +22°C° 0 mm 3 mps 679 mmHg 25%
17:00 +18°C° 0 mm 2 mps 678 mmHg 39%
18:00 +14°C° 0 mm 1 mps 677 mmHg 53%
19:00 +9°C° 0 mm 0 mps 676 mmHg 67%
20:00 +9°C° 0 mm 0 mps 677 mmHg 65%
21:00 +10°C° 0 mm 1 mps 677 mmHg 63%
22:00 +10°C° 0 mm 1 mps 677 mmHg 60%
23:00 +10°C° 0 mm 1 mps 677 mmHg 59%

15 Julio, Miércoles

Tiempo Temperatura Precipitaciones Viento Presión Humedad
00:00 +10°C° 0 mm 1 mps 677 mmHg 57%
01:00 +10°C° 0 mm 1 mps 677 mmHg 56%
02:00 +8°C° 0 mm 0 mps 677 mmHg 57%
03:00 +7°C° 0 mm 0 mps 677 mmHg 59%
04:00 +7°C° 0 mm 0 mps 676 mmHg 60%
05:00 +7°C° 0 mm 0 mps 677 mmHg 56%
06:00 +8°C° 0 mm 0 mps 677 mmHg 52%
07:00 +9°C° 0 mm 0 mps 678 mmHg 47%
08:00 +15°C° 0 mm 1 mps 679 mmHg 36%
09:00 +19°C° 0 mm 2 mps 680 mmHg 25%
10:00 +24°C° 0 mm 2 mps 681 mmHg 14%
11:00 +25°C° 0 mm 2 mps 681 mmHg 14%
12:00 +25°C° 0 mm 2 mps 680 mmHg 13%
13:00 +26°C° 0 mm 2 mps 680 mmHg 12%
14:00 +25°C° 0 mm 2 mps 680 mmHg 13%
15:00 +25°C° 0 mm 2 mps 680 mmHg 15%
16:00 +24°C° 0 mm 2 mps 680 mmHg 16%
17:00 +20°C° 0 mm 1 mps 679 mmHg 32%
18:00 +14°C° 0 mm 1 mps 678 mmHg 49%
19:00 +9°C° 0 mm 0 mps 677 mmHg 65%
20:00 +9°C° 0 mm 0 mps 678 mmHg 63%
21:00 +11°C° 0 mm 1 mps 678 mmHg 60%
22:00 +11°C° 0 mm 1 mps 678 mmHg 58%
23:00 +11°C° 0 mm 1 mps 678 mmHg 56%

16 Julio, Jueves

Tiempo Temperatura Precipitaciones Viento Presión Humedad
00:00 +11°C° 0 mm 1 mps 678 mmHg 55%
01:00 +11°C° 0 mm 1 mps 678 mmHg 54%
02:00 +10°C° 0 mm 1 mps 677 mmHg 52%
03:00 +10°C° 0 mm 1 mps 677 mmHg 50%
04:00 +10°C° 0 mm 1 mps 677 mmHg 48%
05:00 +10°C° 0 mm 1 mps 677 mmHg 41%
06:00 +11°C° 0 mm 1 mps 678 mmHg 34%
07:00 +11°C° 0 mm 1 mps 678 mmHg 27%
08:00 +15°C° 0 mm 1 mps 679 mmHg 20%
09:00 +21°C° 0 mm 1 mps 680 mmHg 14%
10:00 +26°C° 0 mm 1 mps 682 mmHg 7%
11:00 +27°C° 0 mm 2 mps 681 mmHg 7%
12:00 +28°C° 0 mm 3 mps 681 mmHg 7%
13:00 +29°C° 0 mm 3 mps 681 mmHg 6%
14:00 +28°C° 0 mm 3 mps 681 mmHg 9%
15:00 +26°C° 0 mm 3 mps 681 mmHg 12%
16:00 +25°C° 0 mm 3 mps 680 mmHg 15%
17:00 +20°C° 0 mm 2 mps 680 mmHg 29%
18:00 +16°C° 0 mm 1 mps 679 mmHg 43%
19:00 +12°C° 0 mm 1 mps 678 mmHg 57%
20:00 +12°C° 0 mm 1 mps 678 mmHg 55%
21:00 +11°C° 0 mm 1 mps 678 mmHg 53%
22:00 +11°C° 0 mm 1 mps 678 mmHg 50%
23:00 +10°C° 0 mm 0 mps 677 mmHg 50%
Mostrar más